| time (UTC) | temp C | wind direction | speed KPH | gust KPH | rain 1hr cm | rain 24hr cm | rain mn cm | humidity % | barometer mb |
| 20260905085217 | 16 | 26 | 1.6 | 8.0 | 0.00 | 0.13 | 0.13 | 87 | 1025.0 |
| 20260905084711 | 16 | 331 | 0.0 | 6.4 | 0.00 | 0.13 | 0.13 | 90 | 1025.0 |
| 20260905084215 | 16 | 229 | 0.0 | 0.0 | 0.00 | 0.13 | 0.13 | 91 | 1025.0 |
| 20260905083715 | 16 | 229 | 0.0 | 0.0 | 0.03 | 0.13 | 0.13 | 91 | 1024.8 |
| 20260905083228 | 16 | 229 | 0.0 | 0.0 | 0.05 | 0.13 | 0.13 | 92 | 1024.8 |
| 20260905082711 | 16 | 229 | 0.0 | 0.0 | 0.08 | 0.13 | 0.13 | 91 | 1024.7 |
| 20260905082213 | 16 | 229 | 0.0 | 0.0 | 0.10 | 0.13 | 0.13 | 91 | 1024.7 |
| 20260905081715 | 16 | 229 | 0.0 | 0.0 | 0.10 | 0.13 | 0.13 | 91 | 1024.6 |
| 20260905080720 | 16 | 234 | 0.0 | 0.0 | 0.10 | 0.13 | 0.13 | 91 | 1024.6 |
| 20260905080229 | 16 | 234 | 0.0 | 0.0 | 0.10 | 0.13 | 0.13 | 91 | 1024.5 |
| 20260905075740 | 16 | 234 | 0.0 | 0.0 | 0.10 | 0.13 | 0.13 | 91 | 1024.4 |
| 20260905074213 | 16 | 269 | 0.0 | 0.0 | 0.08 | 0.10 | 0.10 | 90 | 1024.4 |
| 20260905073219 | 16 | 269 | 0.0 | 0.0 | 0.05 | 0.05 | 0.05 | 89 | 1024.3 |
| 20260905072718 | 16 | 215 | 0.0 | 0.0 | 0.00 | 0.03 | 0.03 | 89 | 1024.1 |
| 20260905072218 | 16 | 202 | 0.0 | 0.0 | 0.00 | 0.03 | 0.03 | 88 | 1024.1 |
| 20260905071216 | 16 | 178 | 0.0 | 0.0 | 0.00 | 0.03 | 0.03 | 89 | 1024.0 |
| 20260905065716 | 16 | 178 | 0.0 | 0.0 | 0.00 | 0.03 | 0.03 | 88 | 1023.8 |
| 20260905065228 | 16 | 178 | 0.0 | 0.0 | 0.00 | 0.03 | 0.03 | 89 | 1023.8 |
| 20260905064218 | 16 | 178 | 0.0 | 0.0 | 0.00 | 0.03 | 0.03 | 89 | 1023.8 |
| 20260905062712 | 16 | 178 | 0.0 | 0.0 | 0.00 | 0.03 | 0.03 | 89 | 1023.6 |
| 20260905062217 | 16 | 179 | 0.0 | 0.0 | 0.00 | 0.03 | 0.03 | 89 | 1023.6 |
| 20260905061717 | 16 | 178 | 0.0 | 0.0 | 0.00 | 0.03 | 0.03 | 89 | 1023.5 |
| 20260905061225 | 16 | 178 | 0.0 | 0.0 | 0.00 | 0.03 | 0.03 | 90 | 1023.4 |
| 20260905060724 | 16 | 178 | 0.0 | 0.0 | 0.00 | 0.03 | 0.03 | 89 | 1023.4 |
| 20260905060227 | 16 | 138 | 0.0 | 0.0 | 0.00 | 0.03 | 0.03 | 89 | 1023.3 |
| 20260905055732 | 16 | 138 | 0.0 | 0.0 | 0.00 | 0.03 | 0.03 | 89 | 1023.3 |
| 20260905055213 | 16 | 138 | 0.0 | 0.0 | 0.00 | 0.03 | 0.03 | 89 | 1023.3 |
| 20260905054727 | 16 | 138 | 0.0 | 0.0 | 0.00 | 0.03 | 0.03 | 90 | 1023.3 |
| 20260905054218 | 16 | 138 | 0.0 | 0.0 | 0.00 | 0.03 | 0.03 | 89 | 1023.2 |
| 20260905053732 | 16 | 149 | 0.0 | 0.0 | 0.00 | 0.03 | 0.03 | 89 | 1023.1 |
| 20260905052749 | 16 | 167 | 0.0 | 0.0 | 0.00 | 0.03 | 0.03 | 89 | 1023.1 |
| 20260905052209 | 16 | 167 | 0.0 | 0.0 | 0.00 | 0.03 | 0.03 | 89 | 1023.1 |
| 20260905051716 | 16 | 167 | 0.0 | 0.0 | 0.00 | 0.03 | 0.03 | 89 | 1022.8 |
| 20260905051215 | 16 | 167 | 0.0 | 0.0 | 0.00 | 0.03 | 0.03 | 89 | 1023.1 |
| 20260905050723 | 16 | 167 | 0.0 | 0.0 | 0.03 | 0.03 | 0.03 | 89 | 1023.0 |
| 20260905050222 | 16 | 162 | 0.0 | 0.0 | 0.03 | 0.03 | 0.03 | 88 | 1022.8 |
| 20260905045734 | 16 | 162 | 0.0 | 0.0 | 0.03 | 0.03 | 0.03 | 88 | 1022.6 |
| 20260905045216 | 16 | 162 | 0.0 | 0.0 | 0.03 | 0.03 | 0.03 | 87 | 1022.4 |
| 20260905043724 | 16 | 106 | 0.0 | 0.0 | 0.03 | 0.03 | 0.03 | 86 | 1022.1 |
| 20260905042726 | 16 | 107 | 0.0 | 0.0 | 0.03 | 0.03 | 0.03 | 86 | 1022.1 |
| 20260905042227 | 16 | 107 | 0.0 | 0.0 | 0.03 | 0.03 | 0.03 | 85 | 1022.1 |
| 20260905041216 | 16 | 107 | 0.0 | 0.0 | 0.00 | 0.00 | 0.00 | 83 | 1022.1 |
| 20260905040714 | 16 | 107 | 0.0 | 0.0 | 0.00 | 0.00 | 0.00 | 83 | 1022.2 |
| 20260905040211 | 16 | 107 | 0.0 | 0.0 | 0.00 | 0.00 | 0.00 | 82 | 1022.3 |
| 20260905035231 | 16 | 107 | 0.0 | 0.0 | 0.00 | 0.00 | 0.00 | 81 | 1022.1 |
| 20260905034730 | 16 | 42 | 0.0 | 0.0 | 0.00 | 0.00 | 0.00 | 81 | 1022.2 |
| 20260905033721 | 16 | 33 | 0.0 | 0.0 | 0.00 | 0.00 | 0.00 | 80 | 1022.1 |
| 20260905033208 | 16 | 33 | 0.0 | 0.0 | 0.00 | 0.00 | 0.00 | 80 | 1022.1 |
| 20260905032715 | 16 | 33 | 0.0 | 0.0 | 0.00 | 0.00 | 0.00 | 80 | 1022.1 |
| 20260905032211 | 16 | 33 | 0.0 | 0.0 | 0.00 | 0.00 | 0.00 | 80 | 1022.0 |
| 20260905031719 | 16 | 33 | 0.0 | 0.0 | 0.00 | 0.00 | 0.00 | 79 | 1022.0 |
| 20260905031214 | 17 | 33 | 0.0 | 0.0 | 0.00 | 0.00 | 0.00 | 79 | 1022.0 |
| 20260905030241 | 17 | 32 | 0.0 | 0.0 | 0.00 | 0.00 | 0.00 | 79 | 1021.9 |
| 20260905025723 | 17 | 21 | 0.0 | 0.0 | 0.00 | 0.00 | 0.00 | 78 | 1021.9 |
| 20260905024725 | 17 | 21 | 0.0 | 0.0 | 0.00 | 0.00 | 0.00 | 77 | 1021.8 |
| 20260905024211 | 17 | 5 | 0.0 | 0.0 | 0.00 | 0.00 | 0.00 | 77 | 1021.5 |
| 20260905023723 | 17 | 5 | 0.0 | 0.0 | 0.00 | 0.00 | 0.00 | 77 | 1021.7 |
| 20260905023227 | 17 | 0 | 0.0 | 0.0 | 0.00 | 0.00 | 0.00 | 76 | 1021.8 |
| 20260905022720 | 17 | 351 | 0.0 | 0.0 | 0.00 | 0.00 | 0.00 | 76 | 1021.7 |
| 20260905022220 | 17 | 351 | 0.0 | 0.0 | 0.00 | 0.00 | 0.00 | 76 | 1021.7 |
| 20260905021250 | 17 | 351 | 0.0 | 0.0 | 0.00 | 0.00 | 0.00 | 76 | 1021.8 |
| 20260905020719 | 17 | 5 | 0.0 | 0.0 | 0.00 | 0.00 | 0.00 | 76 | 1021.7 |
| 20260905020213 | 18 | 5 | 0.0 | 0.0 | 0.00 | 0.00 | 0.00 | 75 | 1021.7 |
| 20260905015721 | 18 | 5 | 0.0 | 0.0 | 0.00 | 0.00 | 0.00 | 75 | 1021.8 |
| 20260905014721 | 18 | 24 | 0.0 | 9.7 | 0.00 | 0.00 | 0.00 | 74 | 1021.7 |
| 20260905014229 | 18 | 355 | 1.6 | 9.7 | 0.00 | 0.00 | 0.00 | 74 | 1021.7 |
| 20260905013715 | 18 | 302 | 1.6 | 11.3 | 0.00 | 0.00 | 0.00 | 74 | 1021.7 |
| 20260905013211 | 18 | 0 | 1.6 | 11.3 | 0.00 | 0.00 | 0.00 | 73 | 1021.7 |
| 20260905012232 | 18 | 322 | 0.0 | 4.8 | 0.00 | 0.00 | 0.00 | 71 | 1021.7 |
| 20260905011726 | 18 | 336 | 0.0 | 3.2 | 0.00 | 0.00 | 0.00 | 70 | 1021.5 |
| 20260905011215 | 18 | 336 | 0.0 | 0.0 | 0.00 | 0.00 | 0.00 | 70 | 1021.4 |
| 20260905010731 | 18 | 5 | 0.0 | 4.8 | 0.00 | 0.00 | 0.00 | 69 | 1021.3 |
| 20260905010217 | 18 | 17 | 0.0 | 4.8 | 0.00 | 0.00 | 0.00 | 68 | 1021.3 |
| 20260905005707 | 18 | 355 | 0.0 | 8.0 | 0.00 | 0.00 | 0.00 | 68 | 1021.4 |
| 20260905004711 | 18 | 355 | 1.6 | 12.9 | 0.00 | 0.00 | 0.00 | 67 | 1021.3 |
| 20260905003729 | 19 | 5 | 8.0 | 16.1 | 0.00 | 0.00 | 0.00 | 66 | 1021.4 |
| 20260905003216 | 19 | 323 | 6.4 | 16.1 | 0.00 | 0.00 | 0.00 | 66 | 1021.3 |
| 20260905002709 | 19 | 336 | 1.6 | 12.9 | 0.00 | 0.00 | 0.00 | 66 | 1021.2 |
| 20260905002220 | 19 | 337 | 0.0 | 17.7 | 0.00 | 0.00 | 0.00 | 65 | 1021.1 |
| 20260905001718 | 20 | 324 | 1.6 | 19.3 | 0.00 | 0.00 | 0.00 | 65 | 1021.1 |
| 20260905001231 | 20 | 324 | 6.4 | 19.3 | 0.00 | 0.00 | 0.00 | 65 | 1021.1 |
| 20260904235721 | 20 | 350 | 6.4 | 17.7 | 0.00 | 0.00 | 0.00 | 64 | 1021.1 |
| 20260904235227 | 20 | 333 | 3.2 | 12.9 | 0.00 | 0.00 | 0.00 | 64 | 1021.1 |
| 20260904234714 | 20 | 322 | 3.2 | 12.9 | 0.00 | 0.00 | 0.00 | 63 | 1021.0 |
| 20260904234232 | 20 | 333 | 1.6 | 8.0 | 0.00 | 0.00 | 0.00 | 62 | 1021.0 |
| 20260904233728 | 20 | 5 | 1.6 | 8.0 | 0.00 | 0.00 | 0.00 | 62 | 1021.0 |
| 20260904233225 | 20 | 324 | 0.0 | 8.0 | 0.00 | 0.00 | 0.00 | 61 | 1021.0 |
| 20260904232217 | 21 | 348 | 1.6 | 9.7 | 0.00 | 0.00 | 0.00 | 59 | 1020.9 |
| 20260904231721 | 21 | 336 | 1.6 | 14.5 | 0.00 | 0.00 | 0.00 | 58 | 1021.0 |
| 20260904231228 | 21 | 349 | 3.2 | 14.5 | 0.00 | 0.00 | 0.00 | 57 | 1021.0 |
| 20260904230722 | 22 | 351 | 4.8 | 14.5 | 0.00 | 0.00 | 0.00 | 56 | 1020.9 |
| 20260904230246 | 22 | 5 | 4.8 | 17.7 | 0.00 | 0.00 | 0.00 | 55 | 1020.9 |
| 20260904225727 | 22 | 347 | 6.4 | 17.7 | 0.00 | 0.00 | 0.00 | 56 | 1020.9 |
| 20260904225222 | 22 | 340 | 6.4 | 11.3 | 0.00 | 0.00 | 0.00 | 55 | 1020.8 |
| 20260904224717 | 22 | 13 | 4.8 | 14.5 | 0.00 | 0.00 | 0.00 | 56 | 1020.8 |
| 20260904224215 | 21 | 335 | 6.4 | 14.5 | 0.00 | 0.00 | 0.00 | 56 | 1020.7 |
| 20260904223712 | 21 | 324 | 4.8 | 12.9 | 0.00 | 0.00 | 0.00 | 57 | 1020.6 |
| 20260904222725 | 21 | 9 | 3.2 | 12.9 | 0.00 | 0.00 | 0.00 | 59 | 1020.6 |
| 20260904221724 | 20 | 342 | 0.0 | 6.4 | 0.00 | 0.00 | 0.00 | 62 | 1020.5 |
| 20260904220713 | 20 | 31 | 0.0 | 0.0 | 0.00 | 0.00 | 0.00 | 63 | 1020.5 |
| 20260904220225 | 20 | 87 | 0.0 | 0.0 | 0.00 | 0.00 | 0.00 | 63 | 1020.5 |
| 20260904215713 | 20 | 307 | 0.0 | 0.0 | 0.00 | 0.00 | 0.00 | 63 | 1020.5 |
| 20260904215227 | 20 | 344 | 0.0 | 0.0 | 0.00 | 0.00 | 0.00 | 63 | 1020.5 |
| 20260904213718 | 20 | 325 | 0.0 | 6.4 | 0.00 | 0.00 | 0.00 | 63 | 1020.4 |
| 20260904213217 | 20 | 311 | 0.0 | 6.4 | 0.00 | 0.00 | 0.00 | 63 | 1020.4 |
| 20260904212712 | 20 | 84 | 0.0 | 0.0 | 0.00 | 0.00 | 0.00 | 63 | 1020.4 |
| 20260904212255 | 20 | 355 | 0.0 | 0.0 | 0.00 | 0.00 | 0.00 | 64 | 1020.4 |
| 20260904211220 | 20 | 13 | 0.0 | 0.0 | 0.00 | 0.00 | 0.00 | 63 | 1020.4 |
| 20260904210726 | 20 | 355 | 0.0 | 0.0 | 0.00 | 0.00 | 0.00 | 63 | 1020.4 |
| 20260904210216 | 20 | 344 | 0.0 | 0.0 | 0.00 | 0.00 | 0.00 | 63 | 1020.4 |
| 20260904205718 | 21 | 19 | 0.0 | 0.0 | 0.00 | 0.00 | 0.00 | 63 | 1020.4 |
| 20260904204218 | 21 | 38 | 0.0 | 0.0 | 0.00 | 0.00 | 0.00 | 61 | 1020.4 |
| 20260904203721 | 21 | 44 | 0.0 | 0.0 | 0.00 | 0.00 | 0.00 | 61 | 1020.4 |
| 20260904203220 | 21 | 355 | 0.0 | 0.0 | 0.00 | 0.00 | 0.00 | 61 | 1020.4 |
| 20260904202728 | 21 | 351 | 0.0 | 0.0 | 0.00 | 0.00 | 0.00 | 61 | 1020.5 |
| 20260904202230 | 22 | 38 | 0.0 | 0.0 | 0.00 | 0.00 | 0.00 | 60 | 1020.5 |
| 20260904201725 | 22 | 63 | 0.0 | 0.0 | 0.00 | 0.00 | 0.00 | 59 | 1020.6 |
| 20260904200730 | 22 | 313 | 0.0 | 0.0 | 0.00 | 0.00 | 0.00 | 58 | 1020.4 |
| 20260904200210 | 22 | 313 | 0.0 | 3.2 | 0.00 | 0.00 | 0.00 | 57 | 1020.4 |
| 20260904195720 | 22 | 9 | 0.0 | 8.0 | 0.00 | 0.00 | 0.00 | 57 | 1020.4 |
| 20260904195231 | 23 | 150 | 0.0 | 17.7 | 0.00 | 0.00 | 0.00 | 57 | 1020.3 |
| 20260904194711 | 23 | 196 | 1.6 | 17.7 | 0.00 | 0.00 | 0.00 | 54 | 1020.3 |
| 20260904194216 | 23 | 309 | 1.6 | 17.7 | 0.00 | 0.00 | 0.00 | 55 | 1020.3 |
| 20260904193726 | 23 | 344 | 3.2 | 12.9 | 0.00 | 0.00 | 0.00 | 55 | 1020.3 |
| 20260904193212 | 23 | 13 | 4.8 | 20.9 | 0.00 | 0.00 | 0.00 | 56 | 1020.3 |
| 20260904191713 | 22 | 5 | 1.6 | 9.7 | 0.00 | 0.00 | 0.00 | 57 | 1020.3 |
| 20260904191219 | 22 | 71 | 0.0 | 9.7 | 0.00 | 0.00 | 0.00 | 58 | 1020.3 |
| 20260904190716 | 22 | 37 | 0.0 | 9.7 | 0.00 | 0.00 | 0.00 | 59 | 1020.1 |
| 20260904190215 | 22 | 328 | 0.0 | 0.0 | 0.00 | 0.00 | 0.00 | 58 | 1020.0 |
| 20260904185720 | 23 | 0 | 0.0 | 0.0 | 0.00 | 0.00 | 0.00 | 58 | 1020.0 |
| 20260904185224 | 23 | 103 | 0.0 | 0.0 | 0.00 | 0.00 | 0.00 | 58 | 1020.0 |
| 20260904184717 | 23 | 343 | 0.0 | 3.2 | 0.00 | 0.00 | 0.00 | 58 | 1019.9 |
| 20260904184218 | 23 | 80 | 0.0 | 3.2 | 0.00 | 0.00 | 0.00 | 57 | 1019.8 |
| 20260904183722 | 23 | 325 | 0.0 | 3.2 | 0.00 | 0.00 | 0.00 | 57 | 1019.9 |
| 20260904183219 | 23 | 53 | 0.0 | 0.0 | 0.00 | 0.00 | 0.00 | 56 | 1019.8 |
| 20260904182733 | 23 | 5 | 0.0 | 0.0 | 0.00 | 0.00 | 0.00 | 56 | 1019.7 |
| 20260904182220 | 23 | 182 | 0.0 | 0.0 | 0.00 | 0.00 | 0.00 | 56 | 1019.7 |
| 20260904181728 | 23 | 355 | 0.0 | 0.0 | 0.00 | 0.00 | 0.00 | 55 | 1019.7 |
| 20260904181223 | 24 | 276 | 0.0 | 0.0 | 0.00 | 0.00 | 0.00 | 55 | 1019.5 |
| 20260904180708 | 24 | 276 | 0.0 | 0.0 | 0.00 | 0.00 | 0.00 | 54 | 1019.5 |
| 20260904180210 | 24 | 12 | 0.0 | 0.0 | 0.00 | 0.00 | 0.00 | 53 | 1019.5 |
| 20260904175726 | 24 | 302 | 0.0 | 9.7 | 0.00 | 0.00 | 0.00 | 53 | 1019.4 |
| 20260904175213 | 25 | 5 | 0.0 | 11.3 | 0.00 | 0.00 | 0.00 | 52 | 1019.4 |
| 20260904173724 | 25 | 355 | 4.8 | 24.1 | 0.00 | 0.00 | 0.00 | 51 | 1019.3 |
| 20260904173225 | 25 | 355 | 4.8 | 24.1 | 0.00 | 0.00 | 0.00 | 50 | 1019.4 |
| 20260904172210 | 25 | 355 | 1.6 | 14.5 | 0.00 | 0.00 | 0.00 | 49 | 1019.3 |
| 20260904171721 | 25 | 329 | 3.2 | 20.9 | 0.00 | 0.00 | 0.00 | 48 | 1019.4 |
| 20260904171224 | 25 | 5 | 3.2 | 22.5 | 0.00 | 0.00 | 0.00 | 48 | 1019.4 |
| 20260904170712 | 25 | 41 | 6.4 | 22.5 | 0.00 | 0.00 | 0.00 | 48 | 1019.4 |
| 20260904170220 | 26 | 347 | 4.8 | 22.5 | 0.00 | 0.00 | 0.00 | 47 | 1019.4 |
| 20260904165723 | 26 | 355 | 3.2 | 29.0 | 0.00 | 0.00 | 0.00 | 47 | 1019.3 |
| 20260904165210 | 26 | 0 | 6.4 | 29.0 | 0.00 | 0.00 | 0.00 | 46 | 1019.3 |
| 20260904164710 | 26 | 293 | 11.3 | 29.0 | 0.00 | 0.00 | 0.00 | 46 | 1019.4 |
| 20260904164209 | 27 | 336 | 9.7 | 24.1 | 0.00 | 0.00 | 0.00 | 44 | 1019.4 |
| 20260904163721 | 27 | 51 | 4.8 | 20.9 | 0.00 | 0.00 | 0.00 | 43 | 1019.3 |
| 20260904163219 | 28 | 123 | 4.8 | 22.5 | 0.00 | 0.00 | 0.00 | 42 | 1019.3 |
| 20260904162719 | 28 | 355 | 4.8 | 29.0 | 0.00 | 0.00 | 0.00 | 43 | 1019.3 |
| 20260904162212 | 28 | 37 | 8.0 | 29.0 | 0.00 | 0.00 | 0.00 | 42 | 1019.3 |
| 20260904161726 | 28 | 80 | 8.0 | 29.0 | 0.00 | 0.00 | 0.00 | 41 | 1019.3 |
| 20260904161223 | 28 | 78 | 6.4 | 22.5 | 0.00 | 0.00 | 0.00 | 40 | 1019.2 |
| 20260904160717 | 28 | 344 | 4.8 | 24.1 | 0.00 | 0.00 | 0.00 | 40 | 1019.2 |
| 20260904155721 | 28 | 14 | 3.2 | 24.1 | 0.00 | 0.00 | 0.00 | 41 | 1019.1 |
| 20260904155226 | 28 | 5 | 3.2 | 14.5 | 0.00 | 0.00 | 0.00 | 40 | 1019.3 |
| 20260904154715 | 28 | 198 | 4.8 | 14.5 | 0.00 | 0.00 | 0.00 | 41 | 1019.2 |
| 20260904154220 | 28 | 150 | 3.2 | 12.9 | 0.00 | 0.00 | 0.00 | 41 | 1019.2 |
| 20260904153720 | 28 | 117 | 1.6 | 12.9 | 0.00 | 0.00 | 0.00 | 41 | 1019.2 |
| 20260904153229 | 28 | 136 | 1.6 | 12.9 | 0.00 | 0.00 | 0.00 | 40 | 1019.2 |
| 20260904152224 | 28 | 171 | 3.2 | 17.7 | 0.00 | 0.00 | 0.00 | 40 | 1019.2 |
| 20260904151713 | 29 | 150 | 4.8 | 17.7 | 0.00 | 0.00 | 0.00 | 39 | 1019.2 |
| 20260904151224 | 29 | 5 | 3.2 | 19.3 | 0.00 | 0.00 | 0.00 | 39 | 1019.3 |
| 20260904150730 | 29 | 107 | 4.8 | 19.3 | 0.00 | 0.00 | 0.00 | 38 | 1019.3 |
| 20260904150219 | 29 | 317 | 3.2 | 19.3 | 0.00 | 0.00 | 0.00 | 39 | 1019.3 |
| 20260904145229 | 28 | 153 | 3.2 | 16.1 | 0.00 | 0.00 | 0.00 | 40 | 1019.4 |
| 20260904144714 | 28 | 175 | 4.8 | 19.3 | 0.00 | 0.00 | 0.00 | 41 | 1019.3 |
| 20260904143718 | 28 | 117 | 6.4 | 19.3 | 0.00 | 0.00 | 0.00 | 42 | 1019.4 |
| 20260904143215 | 28 | 163 | 8.0 | 19.3 | 0.00 | 0.00 | 0.00 | 40 | 1019.4 |
| 20260904141218 | 28 | 183 | 6.4 | 17.7 | 0.00 | 0.00 | 0.00 | 41 | 1019.4 |
| 20260904140729 | 28 | 163 | 6.4 | 24.1 | 0.00 | 0.00 | 0.00 | 41 | 1019.5 |
| 20260904140215 | 28 | 135 | 9.7 | 24.1 | 0.00 | 0.00 | 0.00 | 42 | 1019.6 |
| 20260904135232 | 28 | 161 | 9.7 | 20.9 | 0.00 | 0.00 | 0.00 | 40 | 1019.6 |
| 20260904134726 | 28 | 161 | 8.0 | 20.9 | 0.00 | 0.00 | 0.00 | 40 | 1019.6 |
| 20260904134221 | 28 | 159 | 4.8 | 20.9 | 0.00 | 0.00 | 0.00 | 40 | 1019.7 |
| 20260904133724 | 30 | 192 | 3.2 | 20.9 | 0.00 | 0.00 | 0.00 | 39 | 1019.8 |
| 20260904133224 | 29 | 283 | 6.4 | 20.9 | 0.00 | 0.00 | 0.00 | 40 | 1019.9 |
| 20260904132208 | 29 | 355 | 1.6 | 17.7 | 0.00 | 0.00 | 0.00 | 39 | 1020.0 |
| 20260904130210 | 28 | 123 | 1.6 | 14.5 | 0.00 | 0.00 | 0.00 | 40 | 1020.1 |
| 20260904125726 | 28 | 73 | 3.2 | 17.7 | 0.00 | 0.00 | 0.00 | 40 | 1020.3 |
| 20260904125218 | 28 | 320 | 4.8 | 17.7 | 0.00 | 0.00 | 0.00 | 42 | 1020.4 |
| 20260904124223 | 28 | 350 | 4.8 | 20.9 | 0.00 | 0.00 | 0.00 | 41 | 1020.5 |
| 20260904123720 | 27 | 301 | 6.4 | 20.9 | 0.00 | 0.00 | 0.00 | 42 | 1020.6 |
| 20260904123220 | 27 | 165 | 8.0 | 20.9 | 0.00 | 0.00 | 0.00 | 41 | 1020.6 |
| 20260904122716 | 28 | 171 | 6.4 | 20.9 | 0.00 | 0.00 | 0.00 | 41 | 1020.5 |
| 20260904122230 | 27 | 113 | 6.4 | 24.1 | 0.00 | 0.00 | 0.00 | 43 | 1020.6 |
| 20260904121720 | 27 | 86 | 11.3 | 24.1 | 0.00 | 0.00 | 0.00 | 42 | 1020.6 |
| 20260904121224 | 27 | 167 | 12.9 | 29.0 | 0.00 | 0.00 | 0.00 | 43 | 1020.6 |
| 20260904120720 | 27 | 151 | 9.7 | 29.0 | 0.00 | 0.00 | 0.00 | 43 | 1020.6 |
| 20260904120220 | 27 | 163 | 8.0 | 29.0 | 0.00 | 0.00 | 0.00 | 43 | 1020.6 |
| 20260904115726 | 27 | 180 | 8.0 | 22.5 | 0.00 | 0.00 | 0.00 | 42 | 1020.6 |
| 20260904114723 | 27 | 142 | 9.7 | 22.5 | 0.00 | 0.00 | 0.00 | 43 | 1020.7 |
| 20260904114221 | 27 | 94 | 9.7 | 20.9 | 0.00 | 0.00 | 0.00 | 44 | 1020.8 |
| 20260904113723 | 27 | 175 | 9.7 | 20.9 | 0.00 | 0.00 | 0.00 | 43 | 1020.8 |
| 20260904113210 | 26 | 134 | 9.7 | 20.9 | 0.00 | 0.00 | 0.00 | 44 | 1020.8 |
| 20260904112718 | 26 | 159 | 8.0 | 20.9 | 0.00 | 0.00 | 0.00 | 43 | 1020.9 |
| 20260904112217 | 26 | 166 | 8.0 | 20.9 | 0.00 | 0.00 | 0.00 | 45 | 1020.9 |
| 20260904111726 | 26 | 130 | 8.0 | 20.9 | 0.00 | 0.00 | 0.00 | 44 | 1021.0 |
| 20260904111219 | 26 | 167 | 11.3 | 19.3 | 0.00 | 0.00 | 0.00 | 45 | 1021.1 |
| 20260904110729 | 26 | 178 | 11.3 | 19.3 | 0.00 | 0.00 | 0.00 | 45 | 1021.1 |
| 20260904110224 | 26 | 157 | 9.7 | 20.9 | 0.00 | 0.00 | 0.00 | 45 | 1021.0 |
| 20260904105728 | 26 | 162 | 9.7 | 22.5 | 0.00 | 0.00 | 0.00 | 45 | 1021.2 |
| 20260904105212 | 26 | 166 | 11.3 | 22.5 | 0.00 | 0.00 | 0.00 | 45 | 1021.3 |
| 20260904104728 | 25 | 170 | 11.3 | 22.5 | 0.00 | 0.00 | 0.00 | 46 | 1021.3 |
| 20260904104210 | 25 | 130 | 11.3 | 22.5 | 0.00 | 0.00 | 0.00 | 46 | 1021.4 |
| 20260904103720 | 25 | 142 | 11.3 | 22.5 | 0.00 | 0.00 | 0.00 | 46 | 1021.5 |
| 20260904103220 | 25 | 160 | 9.7 | 19.3 | 0.00 | 0.00 | 0.00 | 46 | 1021.4 |
| 20260904102722 | 25 | 106 | 11.3 | 19.3 | 0.00 | 0.00 | 0.00 | 47 | 1021.5 |
| 20260904102214 | 25 | 184 | 9.7 | 17.7 | 0.00 | 0.00 | 0.00 | 46 | 1021.7 |
| 20260904100730 | 25 | 157 | 8.0 | 16.1 | 0.00 | 0.00 | 0.00 | 47 | 1021.9 |
| 20260904100219 | 25 | 102 | 8.0 | 17.7 | 0.00 | 0.00 | 0.00 | 46 | 1022.0 |
| 20260904095224 | 24 | 190 | 8.0 | 14.5 | 0.00 | 0.00 | 0.00 | 48 | 1022.1 |
| 20260904094714 | 24 | 161 | 6.4 | 17.7 | 0.00 | 0.00 | 0.00 | 48 | 1022.1 |
| 20260904094215 | 24 | 144 | 6.4 | 17.7 | 0.00 | 0.00 | 0.00 | 48 | 1022.2 |
| 20260904093713 | 23 | 164 | 8.0 | 16.1 | 0.00 | 0.00 | 0.00 | 48 | 1022.2 |
| 20260904093219 | 23 | 181 | 8.0 | 16.1 | 0.00 | 0.00 | 0.00 | 49 | 1022.2 |
| 20260904092721 | 23 | 178 | 8.0 | 16.1 | 0.00 | 0.00 | 0.00 | 48 | 1022.3 |
| 20260904091711 | 23 | 173 | 6.4 | 16.1 | 0.00 | 0.00 | 0.00 | 50 | 1022.3 |
| 20260904091222 | 23 | 162 | 8.0 | 17.7 | 0.00 | 0.00 | 0.00 | 50 | 1022.3 |
| 20260904090717 | 23 | 113 | 8.0 | 17.7 | 0.00 | 0.00 | 0.00 | 49 | 1022.3 |
| 20260904090220 | 23 | 188 | 6.4 | 17.7 | 0.00 | 0.00 | 0.00 | 50 | 1022.4 |